Rochester, NY

7:57 AM EDT on April 21, 2018 (GMT -0400)
Greater Rochester International

Weather History for KROC - October, 2012

Change the Weather History Date:

Friday, October 19, 2012

  Actual Average Record
Temperature  
Mean Temperature 55 °F 49 °F  
Max Temperature 63 °F 58 °F 81 °F (1945)
Min Temperature 46 °F 41 °F 22 °F (1972)
Degree Days  
Heating Degree Days 10 16  
Month to date heating degree days 228 241  
Since 1 July heating degree days 380 422  
Cooling Degree Days 0 0  
Month to date cooling degree days 2 0  
Year to date cooling degree days 799 534  
Growing Degree Days 4 (Base 50)    
Moisture  
Dew Point 50 °F    
Average Humidity 84    
Maximum Humidity 100    
Minimum Humidity 67    
Precipitation  
Precipitation 0.03 in 0.08 in 2.85 in (1996)
Month to date precipitation 1.86 1.69  
Year to date precipitation 26.80 27.67  
Snow  
Snow 0.00 in 0.00 in 0.10 in (1981)
Month to date snowfall 0.0 0.0  
Since 1 July snowfall 0.0 0.0  
Since 1 September snowfall 0.0 0.0  
Snow Depth 0.00 in    
Sea Level Pressure  
Sea Level Pressure 29.74 in    
Wind  
Wind Speed 4 mph (East)    
Max Wind Speed 13 mph    
Max Gust Speed 15 mph    
Visibility 7 miles    
Events Fog , Rain    
T = Trace of Precipitation, MM = Missing Value Source: NWS Daily Summary

Daily Weather History Graph

Daily Weather History Graph

Search for Another Location

Airport or City:

Astronomy

Oct. 19, 2012 Rise Set
Actual Time 7:29 AM EDT 6:20 PM EDT
Civil Twilight 7:00 AM EDT 6:49 PM EDT
Nautical Twilight 6:27 AM EDT 7:22 PM EDT
Astronomical Twilight 5:54 AM EDT 7:55 PM EDT
Moon 12:16 PM EDT (10/19) 9:51 PM EDT (10/19)
Length of Visible Light 11h 48m
Length of Day
10h 50m
Waxing Crescent, 23% of the Moon is Illuminated
Oct 19
Waxing Crescent
Oct 21
First Quarter
Oct 29
Full
Nov 6
Last Quarter
Nov 13
New

Hourly Weather History & Observations

Time (EDT) Temp. Windchill Dew Point Humidity Pressure Visibility Wind Dir Wind Speed Gust Speed Precip Events Conditions
12:54 AM 50.0 °F - 48.0 °F 93% 29.89 in 7.0 mi SE 5.8 mph - 0.13 in Rain Rain
1:54 AM 50.0 °F - 48.0 °F 93% 29.84 in 10.0 mi ESE 6.9 mph - 0.04 in Rain Light Rain
2:54 AM 48.0 °F - 46.0 °F 93% 29.83 in 10.0 mi ESE 3.5 mph - 0.00 in   Scattered Clouds
3:54 AM 46.9 °F - 45.0 °F 93% 29.83 in 7.0 mi SSE 3.5 mph - N/A Fog Patches of Fog
4:13 AM 46.4 °F 44.3 °F 46.4 °F 100% 29.82 in 2.0 mi SE 4.6 mph - N/A   Mostly Cloudy
4:54 AM 46.9 °F - 46.9 °F 100% 29.83 in 0.8 mi ESE 6.9 mph - N/A   Overcast
5:11 AM 46.4 °F 43.5 °F 46.4 °F 100% 29.82 in 1.5 mi SE 5.8 mph - N/A   Overcast
5:33 AM 48.2 °F - 46.4 °F 93% 29.82 in 4.0 mi ESE 8.1 mph - N/A   Overcast
5:54 AM 48.9 °F - 48.0 °F 97% 29.83 in 10.0 mi SE 5.8 mph - N/A   Overcast
6:54 AM 48.9 °F - 46.9 °F 93% 29.81 in 10.0 mi Calm Calm - N/A   Mostly Cloudy
7:54 AM 48.9 °F - 46.9 °F 93% 29.81 in 6.0 mi Calm Calm - N/A   Mostly Cloudy
8:37 AM 48.2 °F - 48.2 °F 100% 29.79 in 6.0 mi Calm Calm - N/A   Overcast
8:54 AM 50.0 °F - 48.0 °F 93% 29.78 in 7.0 mi Calm Calm - N/A   Overcast
9:54 AM 51.1 °F - 48.9 °F 92% 29.78 in 10.0 mi West 4.6 mph - N/A   Mostly Cloudy
10:54 AM 52.0 °F - 48.0 °F 86% 29.76 in 10.0 mi Calm Calm - N/A   Mostly Cloudy
11:54 AM 55.0 °F - 50.0 °F 83% 29.76 in 10.0 mi Calm Calm - N/A   Mostly Cloudy
12:54 PM 59.0 °F - 51.1 °F 75% 29.72 in 10.0 mi Calm Calm - N/A   Scattered Clouds
1:54 PM 62.1 °F - 53.1 °F 72% 29.69 in 10.0 mi Calm Calm - N/A   Scattered Clouds
2:54 PM 63.0 °F - 52.0 °F 67% 29.68 in 10.0 mi East 8.1 mph - N/A   Scattered Clouds
3:54 PM 62.1 °F - 53.1 °F 72% 29.66 in 10.0 mi NE 8.1 mph - N/A   Scattered Clouds
4:54 PM 59.0 °F - 52.0 °F 78% 29.65 in 10.0 mi NE 9.2 mph - N/A   Scattered Clouds
5:54 PM 57.9 °F - 52.0 °F 81% 29.62 in 10.0 mi NNE 10.4 mph - N/A   Mostly Cloudy
6:52 PM 55.4 °F - 53.6 °F 94% 29.63 in 10.0 mi NNE 9.2 mph - 0.00 in   Overcast
6:54 PM 55.9 °F - 53.1 °F 90% 29.64 in 10.0 mi NNE 9.2 mph - 0.00 in   Overcast
7:28 PM 55.4 °F - 53.6 °F 94% 29.63 in 5.0 mi NNE 6.9 mph - N/A   Overcast
7:54 PM 55.9 °F - 54.0 °F 93% 29.63 in 5.0 mi NNE 5.8 mph - N/A   Overcast
8:54 PM 55.9 °F - 55.0 °F 97% 29.63 in 2.5 mi NE 6.9 mph - N/A   Mist
9:54 PM 57.0 °F - 55.0 °F 93% 29.62 in 2.5 mi NE 5.8 mph - N/A   Mist
10:54 PM 55.9 °F - 55.0 °F 97% 29.62 in 4.0 mi Calm Calm - N/A   Overcast
11:54 PM 55.9 °F - 54.0 °F 93% 29.62 in 4.0 mi SSW 3.5 mph - N/A   Overcast